User: anonymous   Login
Location: Waning Moon II Observatory
(30.3730°N, 89.7620°W)
Time: 12:34:08
(UTC-05:00)
Language:

Cosmos 1825 Rocket - Orbit

View from above orbital plane
View from above orbital plane
View from above satellite
View from above satellite

Ground track
Ground track

The orbit data is extracted from the following two-line orbital elements,

1 17567U 87024B   16182.06265879  .00000103  00000-0  95165-5 0  9993
2 17567  82.5285 168.5755 0020782  69.5669 290.7775 14.83594567584258
Epoch (UTC): 30 June 2016 01:30:13
Eccentricity: 0.0020782
inclination: 82.5285°
perigee height: 603 km
apogee height: 632 km
right ascension of ascending node: 168.5755°
argument of perigee: 69.5669°
revolutions per day: 14.83594567
mean anomaly at epoch: 290.7775°
orbit number at epoch: 58425

The dashed part of the orbit path shows where the satellite is in the earth's shadow,  

DLR